Find OneWeb SL0389

NORAD ID: 50469 Int'l Des: 2021-132 Owner: ONEWEBN Country: UK Constellation: oneweb operational
LEOCIRCULARPOLARONEWEB_TYPE

Live Position

Loading 3D Globe...

About OneWeb SL0389

Description loading...

Upcoming Passes

Passes for default location (London). Set your location on the main map for personalized predictions.

Altitude History

Loading altitude history...

Two-Line Element Set

1 50469U 21132A 26126.43383106 .00000004 00000-0 -22543-4 0 9993
2 50469 87.9172 14.1675 0001899 93.0064 267.1285 13.17649094212586
Epoch: May 6, 2026 • Age: 14 hours

Current Status

Altitude 1215.6 km
Velocity 7.25 km/s
Sub-Earth Point -53.13°S, 135.56°E
Launch Date Dec 27, 2021
Age 4.3 years
Type internet

Technical Details

Classification Payload
Mass 148.00 kg
Dry Mass 140.00 kg
Total Mass 148.00 kg
Length 1.30 m
Diameter 1.00 m
Span 5.00 m
Shape Trapezoid+2 pan
Manufacturer ONEWUS
Bus Type ARROW
Phase Status In Orbit
Owner/State ONEWEBN/UK

Most Searched